DELTA 1 DEB, 27576

Orbit data source: Space-Track

DELTA 1 DEB, 27576 is space debris in SSO originally from a launch on Thu, 12 Jun 1975 UTC launched from the Air Force Western Test Range (AFWTR). Debris objects in space refer to the collection of defunct objects orbiting the Earth. Examples of debris include non-operational satellites, rocket bodies, and fragments generated from explosions, collisions, or faulty payload assembly.

Loading next visibility...
Identifier
27576, 1975-052LD
Orbit
SSO
Country
Flag of USUS
Related business
Manufacturer
Unknown
Mission
Spacecraft
Bus & Motor
Unknown
Mass
Unknown
Launch date (UTC)
1975-06-12 (51 years ago)
Launch vehicle
Unknown
Launch site
Air Force Western Test Range (AFWTR)
Object type
Payload
Rocket body
Debris
Shape & HBR
Unknown shape, 0.1 m
Radar Cross Section
Small (<0.1 m²)

Expand to show TLE details & history
Last TLE update: 2 days ago

TLE from 2 days ago
0 DELTA 1 DEB
1 27576U 75052LD  25350.09165538  .00000035  00000-0  85819-4 0  9991
2 27576  99.3017 197.1394 0117400  96.1254  56.3563 13.68115475735387
Epoch: 2025-12-16T02:11Z
TLE epoch observation values (Epoch: 2025-12-16T02:11:59.024Z)
Latitude
26.05032°
Longitude
-96.26923°
Altitude
962.102 km
Speed
7.397 km/s
True Right ascension
01h 26m 49s
True Declination
25° 55' 07"
Sunlit
Object was in full shadow at epoch
Visualization orbit readout
Latitude
Unknown
Longitude
Unknown
Altitude
Unknown
Speed
Unknown
Apparent Right ascension
Unknown
Apparent Declination
Unknown
Sunlit
N/A
Visualization observer readout
Local Sidereal Time
13:10:58
Azimuth
Unknown
Elevation
Unknown
Doppler factor
Unknown
Orbital elements
Apogee altitude
1,090.262 km
Perigee altitude
916.939 km
Semi-major axis
7,381.738 km
Eccentricity
0.01174
Inclination
99.3017°
RAAN
197.1394°
Arg. of periapsis
96.1254°
True anomaly
57.48537°
Mean anomaly
56.3563°
Eccentric anomaly
56.91992°
Mean motion
3.4222 °/min
Orbital period
105.2 mins
BSTAR
0.000085819
Loading maneuver chart data...
Computing Atmospheric mass density...
Loading historical data...
Loading historical data...
Loading historical data...
Loading historical data...
Loading historical data...
Loading historical data...
Loading historical data...

Documentation

Showing up to 5 results
|